Location: Caltech
(34.1382°N, 118.1253°W)
Time: 18:15:21
(UTC-07:00)

Iridium 95 - Visible Passes

Search period start: 29 April 2017 00:00
Search period end: 09 May 2017 00:00
Orbit: 776 x 779 km, 86.4° (Epoch: 28 April)

Date Brightness Start Highest point End Pass type
(mag) Time Alt. Az. Time Alt. Az. Time Alt. Az.
01 May 8.6 05:35:20 10° ESE 05:38:27 16° E 05:41:35 10° NE visible
05 May 8.8 05:03:10 10° ESE 05:05:11 12° E 05:07:12 10° NE visible
08 May 8.3 05:01:34 10° SE 05:05:05 19° E 05:08:37 10° NE visible
